Location: Helds Island Access
(38.5526°N, 91.5997°W)
Time: 13:45:59
(UTC-06:00)

Daily predictions for brighter satellites

Satellite Brightness Start Highest point End
(mag) Time Altitude Azimuth Time Altitude Azimuth Time Altitude Azimuth
Meteor 1-18 Rocket 4.5 18:14:02 10° N 18:19:24 46° ENE 18:24:42 10° SSE
EO 1 Del DPAF 3.6 18:17:18 10° NNE 18:20:57 42° E 18:24:34 10° S
Meteor 1-25 Rocket 4.2 18:16:00 10° S 18:21:26 62° E 18:26:56 10° NNE
Cosmos 158 Rocket 3.9 18:18:18 10° SSW 18:23:11 89° ESE 18:28:06 10° NNE
Landsat 4 3.7 18:19:39 10° NNE 18:23:21 58° E 18:27:04 10° S
Iridium 4 Rocket 3.8 18:19:18 10° NNE 18:23:35 34° E 18:27:34 10° SSE
CZ-4C R/B 4.2 18:21:33 10° N 18:26:26 19° NE 18:31:40 10° E
Cosmos 1437 Rocket 3.6 18:23:00 10° SSE 18:26:37 32° E 18:30:16 10° NNE
Cosmos 1782 Rocket 4.3 18:23:24 10° SSE 18:27:20 32° E 18:31:17 10° NNE
Cosmos 44 Rocket 3.4 18:24:08 10° NNW 18:29:13 81° ENE 18:34:21 10° SSE
Cosmos 1633 2.4 18:29:08 10° S 18:32:41 86° E 18:36:17 10° N
COSMO-SKYMED 1 3.6 18:34:27 10° N 18:38:39 50° WNW 18:42:50 10° SSW
Okean 3 3.6 18:36:03 10° N 18:40:14 80° W 18:44:25 10° S
FENGYUN 3A 4.1 18:35:29 10° S 18:40:51 68° WSW 18:46:16 10° NNW
Cosmos 1452 Rocket 3.9 18:36:28 10° NNW 18:41:42 68° WSW 18:46:53 10° S
Tsikada Rocket 4.4 18:36:16 10° SSE 18:42:15 43° E 18:48:15 10° NNE
Sich 1 Rocket 3.6 18:37:55 10° S 18:42:22 66° E 18:46:48 10° NNE
Cosmos 1048 Rocket 4.0 18:37:29 10° SSW 18:42:49 88° ESE 18:48:07 10° NNE
ALOS 3.1 18:39:37 10° S 18:44:11 54° W 18:48:46 10° NNW
Gbstr 26 Del rocket 2.6 18:40:43 10° SW 18:44:25 67° SE 18:47:48 13° ENE
Cosmos 44 4.3 18:41:52 10° NW 18:46:51 54° WSW 18:51:59 10° SSE
FengYun 1-2 T 4.2 18:46:53 10° SSE 18:52:19 67° ENE 18:57:47 10° N
Okean 2 Rocket 3.5 18:49:34 10° SSE 18:53:37 38° E 18:57:42 10° NNE
Cosmos 1464 Rocket 4.0 18:47:31 10° N 18:53:41 89° W 18:59:50 10° S
Cosmos 921 Rocket 3.0 18:51:48 10° NNW 18:56:20 77° ENE 19:00:46 10° SSE
SPOT 3 Rocket 3.8 18:51:37 10° S 18:56:47 73° WSW 19:02:01 10° NNW
ARGOS Delta rocket 4.3 18:53:03 10° NNE 18:57:25 36° E 19:01:33 10° SSE
ERS-2 2.1 18:54:14 10° SSE 18:57:52 61° ENE 19:01:31 10° N
SL-16 R/B 3.1 18:58:16 10° NNW 19:03:45 53° WSW 19:09:12 10° S
H-2A R/B 3.2 19:02:45 10° S 19:06:39 65° W 19:10:31 10° NNW
SeaSat 1 3.3 19:04:38 22° E 19:06:47 31° NE 19:11:04 10° N
COSMOS 2455 3.0 19:05:05 10° S 19:10:53 52° ESE 19:16:43 10° NE
Cosmos 1184 Rocket 4.2 19:11:49 10° NNE 19:13:29 23° NNE 19:13:29 23° NNE
USA 215 3.3 19:11:44 15° NE 19:17:14 58° SE 19:23:39 10° SSW
SJ-6B 2.6 19:14:32 10° SSE 19:18:16 69° ENE 19:22:07 10° N
GPS 2-05 Rocket1 3.5 19:15:52 10° SW 19:18:46 33° SSE 19:18:59 33° SSE
Cosmos 2346 Rocket 4.4 19:13:28 10° S 19:19:36 66° E 19:25:41 10° NNE
Cosmos 1603 3.6 19:17:10 10° NNW 19:22:48 72° ENE 19:27:49 13° SSE
Envisat 2.9 19:22:20 10° SSE 19:27:21 65° ENE 19:32:24 10° N
HJ-1C 3.8 19:26:49 10° S 19:30:11 63° W 19:33:35 10° NNW
CZ-2D R/B 3.1 19:27:12 12° SSE 19:30:51 84° E 19:34:46 10° N
Resurs 1-3 4.1 19:33:28 40° NE 19:33:28 40° NE 19:37:05 10° N
Cosmos 2263 Rocket 2.1 19:28:02 10° S 19:33:28 57° ESE 19:37:36 18° NE
Meteor 1-13 Rocket 4.0 19:28:32 10° N 19:34:05 83° E 19:39:36 10° S
Cosmos 1975 Rocket 3.7 19:30:39 10° NNW 19:35:01 56° W 19:39:23 10° S
ATLAS CENTAUR R/B 2.5 19:31:40 10° NNW 19:34:39 29° NNE 19:34:39 29° NNE
Cosmos 494 Rocket 4.0 19:31:14 10° SSW 19:36:27 82° WNW 19:41:40 10° NNE
Meteor 1-4 Rocket 3.2 19:37:05 10° SSW 19:40:31 55° W 19:44:02 10° N
Cosmos 1634 Rocket 3.9 19:35:36 10° N 19:41:44 64° E 19:47:11 13° SSE
Cosmos 1110 Rocket 4.1 19:40:06 10° NNW 19:45:25 80° WSW 19:49:26 18° SSE
Thor Agena Rocket 3.8 19:42:11 10° N 19:47:14 68° WNW 19:52:13 10° SSW
CENTAUR R/B 4.3 19:42:11 10° W 19:47:23 27° NW 19:53:11 10° NNE
USA 267 4.3 19:48:24 26° NE 19:49:52 28° NNE 19:55:14 10° NNW
Resurs 01 Rocket 1.8 19:52:52 57° NNE 19:52:52 57° NNE 19:56:33 10° N
Cosmos 2142 Rocket 4.4 19:46:34 10° N 19:52:53 67° E 19:55:43 34° SSE
CZ-3C R/B 4.1 19:52:06 10° SSW 19:56:40 22° SSE 19:57:12 22° SE
OAO 2 Rocket 3.6 19:54:05 10° W 19:58:53 52° S 19:58:57 52° S
Meteor 2-4 Rocket 4.0 19:58:21 10° NNW 20:04:04 66° W 20:09:34 10° S
Meteor 1-5 Rocket 4.3 19:58:34 10° SSW 20:04:27 81° W 20:10:28 10° N
Cosmos 1536 3.8 20:02:00 10° SSW 20:10:07 - N 20:04:57 42° SW
Lacrosse 5 rocket 3.9 20:06:22 10° SSW 20:06:32 11° SSW 20:06:32 11° SSW
CZ-4C R/B 2.8 20:08:55 10° NNW 20:16:12 71° NE 20:17:10 64° E
Spot 2 Rocket 3.8 20:17:54 60° NNW 20:17:54 60° NNW 20:22:04 10° NNW
Geosat 4.2 20:20:44 65° WSW 20:20:44 65° WSW 20:25:13 10° SW
Cosmos 1943 3.5 20:21:36 10° NNW 20:27:10 60° WSW 20:27:32 59° SW
SeaSat 1 3.9 20:44:27 33° WSW 20:44:27 33° WSW 20:48:39 10° NW
USA 215 4.1 20:59:06 40° N 21:00:04 42° NNW 21:06:08 10° W
Cosmos 2263 Rocket 4.4 21:13:43 10° W 21:17:46 20° NW 21:19:31 18° NNW
